Weather History for Owen Roberts, Cayman Islands

Change the Weather History Date:

Sunday, November 16, 2014

  Actual Average Record
Temperature  
Mean Temperature 82 °F -  
Max Temperature 87 °F 82 °F 88 °F (2013)
Min Temperature 78 °F 74 °F 32 °F (1996)
Cooling Degree Days 18    
Growing Degree Days 32 (Base 50)    
Moisture  
Dew Point 76 °F    
Average Humidity 78    
Maximum Humidity 89    
Minimum Humidity 58    
Precipitation  
Precipitation 0.00 in - - ()
Sea Level Pressure  
Sea Level Pressure 30.01 in    
Wind  
Wind Speed 11 mph ()    
Max Wind Speed 17 mph    
Max Gust Speed -    
Visibility 6.2 miles    
Events      
Averages and records for this station are not official NWS values.
T = Trace of Precipitation, MM = Missing Value Source: Averaged Metar Reports

Daily Weather History Graph

Daily Weather History Graph

Search for Another Location

Airport:

Trip Planner

Search our weather history database for the weather conditions in past years. The results will help you decide how hot, cold, wet, or windy it might be!

Date:

Astronomy

Nov. 16, 2014 Rise Set
Actual Time 6:33 AM EST 5:46 PM EST
Civil Twilight 6:10 AM EST 6:09 PM EST
Nautical Twilight 5:44 AM EST 6:36 PM EST
Astronomical Twilight 5:17 AM EST 7:02 PM EST
Moon 1:26 AM EST (11/16) 1:56 PM EST (11/16)
Length of Visible Light 11h 59m
Length of Day
11h 12m
Waning Crescent, 31% of the Moon is Illuminated
Nov 16
Waning Crescent
Nov 22
New
Nov 29
First Quarter
Dec 6
Full
Dec 14
Last Quarter

Hourly Weather History & Observations

Time (EST) Temp. Heat Index Dew Point Humidity Pressure Visibility Wind Dir Wind Speed Gust Speed Precip Events Conditions
6:00 AM 80.6 °F 86.2 °F 75.2 °F 84% 30.01 in 6.2 mi ENE 10.4 mph - N/A   Partly Cloudy
7:00 AM 80 °F - 75 °F 79% 30.04 in 6 mi ENE 11.5 mph - -   Scattered Clouds
7:00 AM 80.6 °F 86.2 °F 75.2 °F 84% 30.04 in 6.2 mi ENE 11.5 mph - N/A   Partly Cloudy
8:00 AM 80.6 °F 85.4 °F 73.4 °F 79% 30.04 in 6.2 mi East 12.7 mph - N/A   Partly Cloudy
9:00 AM 82.4 °F 89.5 °F 75.2 °F 79% 30.06 in 6.2 mi ENE 15.0 mph - N/A   Scattered Clouds
10:00 AM 84.2 °F 92.3 °F 75.2 °F 74% 30.06 in 6.2 mi ENE 17.3 mph - N/A   Scattered Clouds
11:00 AM 86.0 °F 95.1 °F 75.2 °F 70% 30.04 in 6.2 mi ENE 16.1 mph - N/A   Scattered Clouds
12:00 PM 86.0 °F 95.1 °F 75.2 °F 70% 30.04 in 6.2 mi East 15.0 mph - N/A   Scattered Clouds
1:00 PM 86 °F - 73 °F 58% 30.01 in 6 mi East 16.1 mph - -   Partly Cloudy
1:00 PM 86.0 °F 93.4 °F 73.4 °F 66% 30.01 in 6.2 mi East 16.1 mph - N/A   Scattered Clouds
2:00 PM 87.8 °F 97.6 °F 75.2 °F 66% 29.98 in 6.2 mi East 12.7 mph - N/A   Partly Cloudy
3:00 PM 86.0 °F 96.9 °F 77.0 °F 74% 29.95 in 6.2 mi ENE 13.8 mph - N/A   Scattered Clouds
4:00 PM 84.2 °F 94.1 °F 77.0 °F 79% 29.95 in 6.2 mi East 12.7 mph - N/A   Mostly Cloudy
5:00 PM 84.2 °F 94.1 °F 77.0 °F 79% 29.98 in 6.2 mi East 12.7 mph - N/A   Mostly Cloudy
6:00 PM 82.4 °F 90.9 °F 77.0 °F 84% 29.98 in 6.2 mi ESE 11.5 mph - N/A   Partly Cloudy
7:00 PM 82 °F - 77 °F 79% 29.99 in 6 mi East 8.1 mph - -   Scattered Clouds
7:00 PM 82.4 °F 90.9 °F 77.0 °F 84% 29.98 in 6.2 mi East 8.1 mph - N/A   Partly Cloudy
8:00 PM 80.6 °F 87.1 °F 77.0 °F 89% 29.98 in 6.2 mi East 8.1 mph - N/A   Partly Cloudy
9:00 PM 80.6 °F 87.1 °F 77.0 °F 89% 30.01 in 6.2 mi ESE 6.9 mph - N/A   Partly Cloudy
10:00 PM 80.6 °F 87.1 °F 77.0 °F 89% 30.01 in 6.2 mi East 8.1 mph - N/A   Partly Cloudy